Theta_e
316 316 316 316 316 316 316 316 316 316 316 316 316 317 317 317 317 317 318 318 318 318 317 318 318 319 311 303 306 315 335 334 315 308 306 304 300 295 294 294 296 293 297 299 299 297 297
316 316 316 315 315 315 314 315 316 316 315 316 316 316 316 316 316 317 316 316 317 316 317 318 318 320 311 298 313 320 314 314 308 304 302 303 301 300 296 295 295 299 298 298 296 298 296
315 315 315 315 315 314 314 314 314 315 315 315 315 315 315 316 316 316 316 315 315 316 317 318 319 318 310 304 315 316 309 305 307 308 305 306 305 302 299 297 299 300 296 298 298 296 298
314 314 314 315 314 314 313 313 314 314 315 315 315 315 315 315 315 315 315 315 314 316 318 320 320 314 301 315 313 312 309 309 309 308 308 308 306 302 298 300 301 295 293 290 296 298 301
313 313 313 314 314 314 312 313 313 313 314 315 314 314 314 315 315 315 314 313 315 317 320 320 313 311 304 319 312 313 312 311 309 308 308 313 305 299 300 294 292 293 289 289 295 300 302
313 313 313 313 313 314 312 312 313 313 313 314 314 313 313 313 314 313 313 313 317 318 319 319 318 305 309 309 312 315 312 312 310 309 306 305 300 296 293 293 288 290 290 290 292 303 309
312 313 313 313 313 313 312 312 313 313 313 313 314 313 313 313 313 312 309 306 306 304 312 304 300 306 310 314 315 311 312 309 308 307 299 301 296 293 295 296 296 295 293 293 295 306 306
314 313 313 313 312 312 312 313 312 312 313 313 313 313 313 312 312 311 307 303 307 306 300 309 312 312 314 312 306 309 313 306 305 299 301 298 294 300 300 299 298 297 294 293 301 307 306
315 314 314 313 313 313 312 313 313 313 313 312 312 312 312 312 310 306 301 304 308 305 299 304 309 309 309 310 306 306 309 305 302 299 299 297 300 304 302 299 298 296 294 295 300 305 306
315 315 315 314 313 313 313 313 313 313 313 312 311 311 311 310 301 301 302 309 306 304 294 298 303 306 309 307 304 310 310 307 302 300 300 299 303 302 300 299 299 294 301 300 302 297 293
316 315 315 314 314 314 313 313 312 313 312 312 311 311 311 310 299 298 302 307 307 306 286 305 303 308 307 303 303 304 310 307 301 301 300 297 300 299 299 300 302 299 302 300 299 293 291
316 316 315 314 314 314 313 312 312 312 312 311 311 311 310 303 300 304 307 306 305 294 286 301 303 301 300 301 302 305 305 307 307 302 301 300 305 304 302 304 304 304 300 298 297 293 289
316 316 315 314 314 313 313 312 312 312 312 311 310 310 306 304 298 302 306 305 295 290 301 297 296 299 298 298 299 302 301 298 296 294 293 300 300 305 308 302 303 300 295 289 289 289 289
316 315 315 314 314 313 313 312 312 312 311 311 309 306 303 304 303 305 304 299 289 297 299 303 299 298 297 298 298 301 298 295 298 298 294 292 293 303 307 303 298 297 296 289 285 286 289
316 315 315 315 315 314 313 312 312 311 310 309 305 296 297 302 306 305 301 292 293 297 302 299 300 295 295 299 300 298 296 296 298 300 295 294 298 305 306 305 302 297 292 295 291 289 290
316 316 316 315 314 314 313 313 312 312 310 307 297 296 299 307 309 305 298 293 298 304 302 302 297 298 293 295 296 295 295 300 300 303 301 300 297 305 306 307 303 298 299 291 289 285 284
316 316 316 315 314 314 313 313 312 311 308 305 296 295 301 309 309 303 292 295 300 305 304 300 297 297 300 299 297 294 297 301 303 302 302 299 298 300 305 301 298 296 293 292 292 290 285
316 316 315 316 315 314 314 313 312 310 305 299 292 287 301 308 299 298 297 301 302 303 304 302 301 299 299 300 300 297 297 302 309 304 300 300 296 294 299 304 306 298 295 292 288 287 289
315 315 316 315 315 314 313 312 312 309 304 292 287 290 304 304 294 296 300 303 304 303 303 302 301 303 301 299 296 304 304 308 309 304 302 301 292 290 293 298 302 301 301 297 292 291 289
312 314 315 315 315 314 314 313 312 310 306 295 290 289 298 301 300 298 299 301 301 306 305 307 305 304 301 300 301 299 304 309 309 310 316 307 294 292 290 293 298 297 299 299 295 289 289
311 312 312 314 315 315 314 313 312 309 307 295 292 290 296 293 295 296 298 302 301 301 304 305 299 301 300 297 301 302 304 305 307 310 307 300 296 297 297 300 300 298 299 298 294 294 291
308 308 309 312 314 315 314 314 312 309 304 292 286 291 297 296 298 296 296 298 300 301 301 300 300 303 302 301 303 301 305 303 300 304 302 301 297 298 296 302 300 298 299 299 298 297 296
306 306 307 310 312 314 315 314 313 310 300 291 293 294 297 296 296 294 295 298 302 301 303 305 306 303 302 304 307 305 304 304 305 301 301 298 297 294 290 300 297 290 296 298 298 299 297
307 306 306 307 310 312 314 314 314 311 302 294 292 292 293 292 295 296 300 301 300 301 299 307 308 303 305 310 307 305 301 303 306 303 304 300 297 294 291 293 285 295 303 303 302 303 302
308 306 306 307 307 310 312 314 314 312 307 297 294 293 292 290 296 299 300 299 300 300 300 304 307 308 307 303 298 295 295 297 299 303 301 302 298 294 291 289 293 299 301 299 297 298 304
308 307 307 307 307 308 310 311 314 313 310 299 296 294 292 292 293 301 298 298 295 296 298 302 306 305 302 299 297 289 289 293 293 296 303 301 297 295 290 287 286 295 303 306 301 293 305
306 307 306 308 307 307 307 309 312 314 311 302 296 294 297 295 300 297 296 296 299 298 295 299 302 301 299 294 292 290 291 296 291 292 294 294 293 290 288 287 292 300 305 307 291 292 305
307 307 307 307 308 307 307 308 311 314 312 305 300 297 293 294 297 302 303 298 298 297 293 297 298 300 294 290 290 290 289 291 290 293 294 294 292 290 290 286 288 304 304 297 299 302 304
306 308 307 308 308 308 307 308 310 314 313 306 299 299 299 294 295 303 306 308 305 303 297 296 299 299 301 293 291 292 290 290 288 287 296 291 295 293 294 293 299 302 301 304 304 303 302
Wind_Speed
8 8 9 10 11 13 14 13 13 14 16 16 18 19 18 17 18 19 18 18 18 17 14 12 9 9 2 2 8 1 10 10 5 4 3 3 2 2 1 2 3 4 4 7 3 4 5
7 8 9 11 11 11 14 14 15 15 16 16 16 17 18 19 19 19 19 18 18 16 14 10 6 7 1 3 2 6 9 7 5 3 3 4 2 4 2 3 2 3 5 7 2 5 0
7 9 10 10 11 11 13 15 15 16 17 17 16 18 19 18 19 21 21 20 18 15 13 7 3 3 2 10 5 5 7 5 5 4 3 4 3 0 2 5 2 3 5 8 5 3 5
7 8 9 10 11 12 13 15 16 17 18 18 18 19 20 21 21 22 22 21 19 16 10 5 4 2 6 4 3 3 2 2 4 4 2 6 4 4 1 2 8 4 6 4 6 6 5
7 8 9 10 10 11 13 14 16 17 19 19 19 20 22 22 23 24 25 23 21 7 5 7 2 1 8 2 2 4 4 3 4 4 4 5 2 2 6 3 6 7 1 2 10 2 4
7 8 9 10 10 10 12 14 15 17 19 20 20 20 23 24 25 24 25 19 1 6 3 3 3 3 4 3 3 4 5 3 3 5 5 5 5 3 4 5 3 3 1 3 5 5 12
7 8 7 9 11 11 13 14 16 17 19 20 21 22 24 25 26 23 14 4 4 1 1 6 5 4 5 5 3 5 5 4 2 5 1 3 4 5 9 6 2 1 5 7 4 3 8
7 8 9 10 11 11 13 14 15 17 19 20 22 22 24 26 27 21 2 4 1 3 10 9 10 6 6 4 4 5 6 4 3 3 2 6 6 9 5 2 3 9 1 3 3 5 5
7 8 8 9 11 10 13 13 15 16 18 19 20 21 23 28 30 3 2 5 3 4 1 8 6 5 5 8 8 8 8 3 2 0 4 5 9 2 3 3 3 3 6 4 7 3 5
7 8 8 8 9 10 11 14 15 17 18 19 20 20 22 31 3 5 6 4 5 3 5 8 5 8 5 6 3 7 8 6 1 5 4 6 5 5 4 2 7 3 1 7 10 5 4
8 8 8 9 9 10 12 13 14 17 19 18 19 20 18 9 5 5 7 12 12 3 3 2 3 1 5 8 3 4 5 5 5 5 5 8 6 4 1 6 7 6 4 4 5 4 5
9 9 8 9 9 10 11 13 15 16 19 20 20 19 17 1 3 10 12 12 2 7 6 3 5 5 6 3 2 3 4 3 4 3 3 9 5 3 7 3 1 4 5 8 4 4 4
9 9 9 9 10 9 10 12 15 17 18 22 23 23 13 3 6 2 7 4 4 3 6 2 4 4 4 4 2 5 6 5 4 2 5 6 3 3 3 6 4 8 7 5 5 6 5
10 9 9 9 10 10 10 12 14 17 19 22 25 27 5 7 5 2 4 5 2 3 5 5 2 3 7 5 4 4 5 5 3 4 1 1 5 1 1 4 6 3 7 7 4 3 4
11 10 9 9 9 10 11 12 13 15 20 21 24 4 5 6 7 3 4 2 6 5 4 8 6 4 3 4 3 4 8 7 8 8 7 4 4 2 2 3 6 2 1 2 8 4 3
11 10 10 9 9 9 10 11 13 16 20 22 5 5 5 3 9 3 5 4 5 3 6 4 5 0 5 2 6 7 6 6 7 10 6 2 3 1 2 6 6 4 5 3 4 4 2
12 11 10 9 8 9 9 10 11 14 20 15 3 5 5 5 2 5 4 5 4 4 7 6 5 4 2 1 5 5 9 5 7 8 8 5 4 3 4 3 2 3 2 7 6 4 6
12 11 10 9 8 8 8 9 10 12 19 9 3 4 3 4 3 1 3 5 3 2 3 7 4 9 4 3 2 4 10 3 5 7 9 6 5 3 3 4 3 3 4 4 7 2 1
8 9 10 9 8 7 7 7 7 9 10 2 2 5 5 4 1 2 4 3 3 4 5 3 4 4 3 2 2 1 2 3 6 5 11 8 1 3 5 7 5 8 3 5 5 3 4
7 6 7 9 8 7 7 6 4 5 5 4 2 4 6 5 0 1 3 2 5 5 6 5 7 3 2 5 3 2 2 5 4 5 6 10 4 8 9 7 4 4 3 4 5 4 2
7 5 5 7 8 7 7 5 2 2 4 3 2 4 2 4 4 4 3 3 7 4 4 2 4 5 5 2 4 3 3 4 5 6 3 5 5 3 4 5 3 2 2 4 3 4 5
12 7 8 8 7 9 8 7 4 1 3 3 1 2 5 3 4 4 6 3 4 6 3 8 3 3 2 6 6 1 2 2 1 6 5 5 1 3 3 4 4 1 2 1 2 2 4
12 11 9 9 6 8 9 8 6 5 4 2 2 2 3 4 5 2 1 5 6 9 7 8 3 4 4 4 3 1 2 2 2 5 3 4 5 4 2 1 4 3 3 3 3 3 3
12 12 10 10 6 6 9 9 8 8 5 3 2 2 3 4 1 1 4 5 10 7 6 4 3 4 4 1 1 3 6 6 7 6 3 5 4 3 3 3 2 7 3 6 9 2 3
13 13 12 11 11 9 6 8 8 9 9 3 1 3 2 3 2 4 7 4 9 6 4 4 6 3 5 5 6 6 7 6 4 8 6 3 6 4 5 4 4 5 5 5 5 1 2
13 14 13 12 11 11 7 6 9 10 11 3 2 3 3 2 4 4 3 3 3 5 9 6 6 5 5 4 5 4 3 4 3 2 5 6 7 6 3 4 8 8 3 2 6 2 3
14 13 14 12 12 10 11 11 8 12 13 3 2 4 3 2 4 3 3 2 3 3 3 5 8 9 4 3 4 3 3 2 2 3 1 3 4 5 3 4 7 7 5 0 5 9 6
11 13 14 14 12 11 10 12 8 13 15 4 2 5 4 2 6 2 2 3 4 2 2 6 4 5 5 5 4 3 2 2 1 2 3 5 5 4 3 2 7 4 1 5 6 2 6
12 11 13 14 12 12 11 11 10 12 15 7 1 1 3 2 6 2 7 11 9 11 2 2 3 2 2 4 1 3 2 2 2 3 4 0 6 4 6 6 4 4 0 1 3 4 2
Wind_Direction
18 19 14 16 16 355 353 3 356 349 341 341 341 337 333 332 327 321 318 319 324 322 318 310 313 310 297 326 252 185 113 107 109 123 175 170 97 97 359 297 297 178 268 198 268 277 147
9 16 15 10 7 4 354 357 353 347 339 340 336 329 330 333 322 317 318 321 321 316 306 296 304 294 27 300 231 147 119 112 123 180 202 175 211 189 219 247 223 260 272 283 163 288 48
7 14 9 6 1 0 359 350 353 343 336 336 334 332 330 325 319 321 321 317 311 306 292 279 260 260 70 240 345 136 136 170 185 191 214 201 180 135 185 311 235 292 11 341 358 9 35
5 10 3 0 356 355 358 348 347 345 334 336 334 334 325 328 325 322 316 313 308 300 266 243 182 221 246 276 107 137 159 288 215 220 265 251 194 233 214 341 5 38 49 34 296 33 336
359 357 356 351 353 348 353 344 342 344 336 334 333 332 328 324 326 321 314 314 307 265 193 146 164 82 271 296 184 231 160 226 174 183 228 270 56 61 18 69 10 14 142 281 321 17 137
344 347 346 339 341 344 346 341 338 341 337 333 333 329 327 327 322 320 316 308 304 135 197 185 256 357 278 234 219 203 189 283 350 335 8 51 50 53 33 72 198 180 28 296 248 355 81
326 326 329 332 337 341 334 337 337 339 330 334 335 333 325 325 318 323 328 20 3 348 171 219 214 251 271 284 204 226 170 115 211 57 55 355 44 243 231 205 93 168 166 216 267 145 91
303 311 322 327 331 331 329 330 331 334 329 333 333 328 327 320 316 329 231 13 332 168 301 228 241 253 259 106 350 288 110 139 127 204 35 11 245 237 231 181 151 261 358 137 24 60 89
285 298 307 316 319 321 325 326 325 330 326 329 330 328 328 322 320 336 259 223 32 314 250 294 203 195 204 139 206 245 136 146 119 49 209 191 251 60 201 47 231 302 174 192 160 80 82
276 287 298 303 307 309 318 325 328 327 324 328 328 329 332 327 33 322 292 294 309 271 51 275 230 253 161 150 241 201 164 138 174 214 211 224 272 261 41 238 166 92 205 128 131 103 201
276 281 289 299 306 312 317 321 322 321 323 326 325 323 327 322 295 306 275 330 325 63 353 202 204 196 142 149 188 209 163 61 194 230 72 262 303 13 191 214 160 197 163 114 135 127 98
267 280 287 296 305 312 318 320 321 323 322 321 319 316 328 180 237 245 311 302 56 45 258 316 152 168 122 195 222 94 132 102 187 217 218 246 258 234 225 88 114 92 77 45 62 90 33
257 268 284 295 304 311 316 318 319 321 321 318 315 308 315 241 242 4 305 4 40 176 317 309 206 149 156 167 235 151 153 160 188 108 358 325 268 255 173 98 34 72 52 3 10 14 214
251 259 268 282 296 308 316 319 321 321 321 319 315 312 251 211 225 319 335 52 200 268 284 336 303 118 174 160 232 209 147 197 232 105 106 194 343 262 174 156 159 57 139 146 189 184 267
248 253 260 270 282 299 311 318 321 322 321 324 319 326 289 269 197 149 95 111 224 220 342 324 325 108 228 220 180 149 203 214 193 167 170 171 287 338 177 133 117 194 61 179 102 22 64
252 252 256 263 278 291 305 317 325 327 325 331 329 342 271 307 161 119 85 221 251 280 337 338 3 132 185 219 161 162 184 212 203 188 149 214 99 25 338 52 33 112 152 59 17 134 211
250 251 253 262 270 284 299 317 329 333 329 330 25 355 272 146 225 49 158 232 281 277 8 352 322 298 227 194 190 198 208 269 188 180 155 156 107 286 47 48 207 12 40 53 109 112 150
237 243 248 258 266 277 295 315 336 347 336 40 18 345 252 96 46 29 164 195 280 319 295 264 238 218 248 244 227 232 206 262 32 149 166 191 139 149 126 307 218 127 88 109 111 231 87
257 246 249 250 260 272 286 308 338 1 32 19 359 263 309 101 191 242 288 273 256 271 244 269 271 240 292 291 9 235 162 127 40 162 159 179 13 69 12 357 3 82 36 96 98 86 197
259 268 266 253 250 267 275 287 321 356 47 86 40 341 317 30 8 1 9 299 283 298 259 225 242 226 302 34 356 311 1 13 37 65 48 89 103 152 186 192 150 113 109 98 107 100 193
237 247 260 266 256 258 260 260 268 334 27 90 64 264 206 318 335 334 285 309 299 268 246 277 297 217 159 79 343 38 357 3 41 11 58 92 109 110 73 77 93 155 109 133 146 179 147
244 252 263 255 253 246 238 239 210 200 87 75 128 24 343 289 289 342 358 339 317 336 231 287 232 347 191 149 179 141 323 14 280 19 58 1 94 103 63 45 85 212 282 1 142 129 246
240 243 257 252 242 256 233 222 196 172 102 100 294 309 112 289 333 58 5 301 315 323 274 227 297 107 89 172 208 244 157 321 272 127 95 64 120 90 183 67 113 335 207 125 94 50 249
227 239 248 249 258 262 237 208 189 178 140 128 221 107 74 274 331 7 312 303 301 299 260 315 70 123 232 89 165 45 35 43 65 36 110 111 86 77 148 45 167 239 289 127 119 48 38
216 228 234 239 244 253 256 208 188 181 167 121 166 109 118 277 281 325 319 317 310 291 356 337 358 352 324 38 63 37 351 16 351 40 24 75 117 96 142 186 285 307 160 169 186 136 302
223 224 225 227 233 238 236 245 199 191 172 112 204 144 123 120 245 277 307 329 330 331 341 341 336 337 47 69 69 108 187 216 281 324 48 58 62 117 120 166 212 236 252 49 105 278 220
225 222 228 223 216 231 235 232 234 193 177 144 231 181 113 181 268 356 34 318 335 348 268 312 336 348 29 61 80 131 223 212 222 189 246 23 24 159 134 214 287 252 224 142 122 238 170
235 224 223 219 208 220 231 235 246 192 182 153 259 187 141 197 278 290 26 9 346 27 50 291 10 349 25 67 113 196 147 255 23 211 192 173 153 203 104 144 269 336 67 162 214 103 154
234 228 210 209 203 212 219 231 241 195 180 155 274 204 138 171 249 261 242 231 199 220 180 324 191 258 226 85 60 116 91 47 92 259 344 42 185 197 162 218 263 291 81 24 126 131 142